When you browse on this site, cookies collect data to enhance your experience and personalize the content and advertising you see.
Visit our Privacy Policy to learn more. By continuing to use the site, you agree to this use of cookies and data.
  • In Portugal
  • List of Countries
  • For 7 days
  • Water Temperature
  • Satellite Maps
  • Weather Map
  • Weather Widgets
  • user-avatar
    Login

    Hourly Weather Veselyy

    Today, 25 June, Tuesday

    Time Temperature Precipitation Wind Pressure Humidity
    00:00 +15°C° 0 mm 2 mps 749 mmHg 86%
    01:00 +14°C° 0 mm 2 mps 749 mmHg 85%
    02:00 +14°C° 0 mm 2 mps 749 mmHg 84%
    03:00 +13°C° 0 mm 2 mps 749 mmHg 86%
    04:00 +14°C° 0 mm 2 mps 750 mmHg 82%
    05:00 +14°C° 0 mm 3 mps 750 mmHg 79%
    06:00 +14°C° 0 mm 3 mps 750 mmHg 75%
    07:00 +17°C° 0 mm 3 mps 750 mmHg 70%
    08:00 +18°C° 0 mm 4 mps 751 mmHg 65%
    09:00 +20°C° 0 mm 4 mps 751 mmHg 61%
    10:00 +20°C° 0 mm 4 mps 751 mmHg 58%
    11:00 +21°C° 0 mm 4 mps 751 mmHg 55%
    12:00 +22°C° 0 mm 4 mps 751 mmHg 52%
    13:00 +22°C° 0 mm 4 mps 751 mmHg 53%
    14:00 +22°C° 0 mm 4 mps 751 mmHg 54%
    15:00 +22°C° 0 mm 4 mps 751 mmHg 54%
    16:00 +21°C° 0.1 mm 4 mps 751 mmHg 60%
    17:00 +20°C° 0.1 mm 4 mps 751 mmHg 65%
    18:00 +19°C° 0.1 mm 4 mps 751 mmHg 71%
    19:00 +18°C° 0 mm 3 mps 751 mmHg 74%
    20:00 +16°C° 0 mm 3 mps 751 mmHg 78%
    21:00 +14°C° 0 mm 3 mps 752 mmHg 82%
    22:00 +14°C° 0 mm 2 mps 751 mmHg 84%
    23:00 +13°C° 0 mm 2 mps 751 mmHg 86%

    Tomorrow, 26 June, Wednesday

    Time Temperature Precipitation Wind Pressure Humidity
    00:00 +12°C° 0 mm 2 mps 751 mmHg 89%
    01:00 +12°C° 0 mm 2 mps 751 mmHg 91%
    02:00 +10°C° 0 mm 2 mps 751 mmHg 93%
    03:00 +9°C° 0 mm 2 mps 752 mmHg 95%
    04:00 +10°C° 0 mm 3 mps 751 mmHg 90%
    05:00 +11°C° 0 mm 3 mps 751 mmHg 86%
    06:00 +12°C° 0 mm 3 mps 751 mmHg 82%
    07:00 +14°C° 0 mm 3 mps 751 mmHg 73%
    08:00 +16°C° 0 mm 3 mps 751 mmHg 65%
    09:00 +18°C° 0 mm 4 mps 751 mmHg 57%
    10:00 +18°C° 0 mm 4 mps 751 mmHg 55%
    11:00 +18°C° 0 mm 4 mps 751 mmHg 54%
    12:00 +19°C° 0 mm 4 mps 751 mmHg 53%
    13:00 +19°C° 0 mm 4 mps 751 mmHg 53%
    14:00 +19°C° 0 mm 4 mps 751 mmHg 53%
    15:00 +19°C° 0 mm 4 mps 750 mmHg 53%
    16:00 +19°C° 0 mm 3 mps 750 mmHg 57%
    17:00 +19°C° 0 mm 3 mps 750 mmHg 61%
    18:00 +18°C° 0 mm 2 mps 749 mmHg 65%
    19:00 +17°C° 0 mm 2 mps 749 mmHg 69%
    20:00 +15°C° 0 mm 1 mps 749 mmHg 73%
    21:00 +13°C° 0 mm 1 mps 748 mmHg 78%
    22:00 +13°C° 0 mm 1 mps 748 mmHg 75%
    23:00 +13°C° 0 mm 1 mps 748 mmHg 73%

    Day after tomorrow, 27 June, Thursday

    Time Temperature Precipitation Wind Pressure Humidity
    00:00 +14°C° 0 mm 2 mps 747 mmHg 70%
    01:00 +13°C° 0.3 mm 1 mps 747 mmHg 76%
    02:00 +13°C° 0.3 mm 1 mps 746 mmHg 82%
    03:00 +12°C° 0.3 mm 1 mps 746 mmHg 88%
    04:00 +12°C° 0.7 mm 1 mps 746 mmHg 91%
    05:00 +12°C° 0.7 mm 1 mps 745 mmHg 93%
    06:00 +12°C° 0.7 mm 1 mps 745 mmHg 96%
    07:00 +13°C° 0.1 mm 1 mps 744 mmHg 93%
    08:00 +15°C° 0.1 mm 1 mps 744 mmHg 90%
    09:00 +16°C° 0.1 mm 1 mps 744 mmHg 87%
    10:00 +18°C° 0.2 mm 1 mps 744 mmHg 82%
    11:00 +17°C° 0.2 mm 2 mps 743 mmHg 77%
    12:00 +18°C° 0.2 mm 2 mps 743 mmHg 72%
    13:00 +19°C° 0 mm 3 mps 743 mmHg 70%
    14:00 +19°C° 0 mm 3 mps 742 mmHg 67%
    15:00 +20°C° 0 mm 3 mps 742 mmHg 65%
    16:00 +19°C° 0 mm 4 mps 742 mmHg 69%
    17:00 +18°C° 0 mm 4 mps 741 mmHg 73%
    18:00 +17°C° 0 mm 4 mps 741 mmHg 77%
    19:00 +15°C° 0.6 mm 4 mps 740 mmHg 83%
    20:00 +14°C° 0.6 mm 4 mps 740 mmHg 89%
    21:00 +13°C° 0.6 mm 4 mps 739 mmHg 95%
    22:00 +13°C° 1 mm 5 mps 738 mmHg 95%
    23:00 +13°C° 1 mm 6 mps 738 mmHg 96%

    28 June, Friday

    Time Temperature Precipitation Wind Pressure Humidity
    00:00 +12°C° 1 mm 7 mps 737 mmHg 96%
    01:00 +12°C° 4.7 mm 7 mps 736 mmHg 96%
    02:00 +12°C° 4.7 mm 7 mps 735 mmHg 97%
    03:00 +12°C° 4.7 mm 8 mps 735 mmHg 97%
    04:00 +14°C° 4 mm 7 mps 734 mmHg 97%
    05:00 +14°C° 4 mm 7 mps 734 mmHg 97%
    06:00 +15°C° 4 mm 7 mps 733 mmHg 96%
    07:00 +15°C° 1.4 mm 7 mps 733 mmHg 96%
    08:00 +15°C° 1.4 mm 7 mps 733 mmHg 95%
    09:00 +15°C° 1.4 mm 7 mps 732 mmHg 94%
    10:00 +15°C° 0.4 mm 7 mps 732 mmHg 94%
    11:00 +16°C° 0.4 mm 7 mps 732 mmHg 93%
    12:00 +16°C° 0.4 mm 7 mps 732 mmHg 92%
    13:00 +16°C° 0.4 mm 6 mps 732 mmHg 92%
    14:00 +17°C° 0.4 mm 6 mps 732 mmHg 91%
    15:00 +17°C° 0.4 mm 5 mps 731 mmHg 91%
    16:00 +18°C° 1.9 mm 4 mps 731 mmHg 91%
    17:00 +18°C° 1.9 mm 4 mps 731 mmHg 92%
    18:00 +18°C° 1.9 mm 3 mps 731 mmHg 93%
    19:00 +17°C° 0.4 mm 3 mps 731 mmHg 93%
    20:00 +16°C° 0.4 mm 3 mps 731 mmHg 94%
    21:00 +15°C° 0.4 mm 2 mps 731 mmHg 94%
    22:00 +15°C° 0 mm 2 mps 731 mmHg 95%
    23:00 +13°C° 0 mm 3 mps 731 mmHg 95%

    29 June, Saturday

    Time Temperature Precipitation Wind Pressure Humidity
    00:00 +13°C° 0 mm 3 mps 732 mmHg 96%
    01:00 +12°C° 0 mm 3 mps 732 mmHg 96%
    02:00 +12°C° 0 mm 3 mps 732 mmHg 96%
    03:00 +11°C° 0 mm 3 mps 732 mmHg 96%
    04:00 +11°C° 0 mm 4 mps 732 mmHg 95%
    05:00 +12°C° 0 mm 5 mps 732 mmHg 94%
    06:00 +12°C° 0 mm 5 mps 732 mmHg 93%
    07:00 +13°C° 0 mm 5 mps 733 mmHg 90%
    08:00 +13°C° 0 mm 5 mps 733 mmHg 87%
    09:00 +13°C° 0 mm 5 mps 733 mmHg 84%
    10:00 +14°C° 0.1 mm 5 mps 734 mmHg 80%
    11:00 +16°C° 0.1 mm 6 mps 734 mmHg 76%
    12:00 +17°C° 0.1 mm 6 mps 735 mmHg 72%
    13:00 +17°C° 0.2 mm 6 mps 735 mmHg 73%
    14:00 +17°C° 0.2 mm 5 mps 735 mmHg 74%
    15:00 +17°C° 0.2 mm 5 mps 735 mmHg 75%
    16:00 +17°C° 0.2 mm 5 mps 736 mmHg 77%
    17:00 +18°C° 0.2 mm 4 mps 736 mmHg 79%
    18:00 +18°C° 0.2 mm 3 mps 736 mmHg 81%
    19:00 +16°C° 0.2 mm 3 mps 736 mmHg 85%
    20:00 +15°C° 0.2 mm 2 mps 737 mmHg 89%
    21:00 +13°C° 0.2 mm 1 mps 737 mmHg 93%
    22:00 +13°C° 0 mm 2 mps 737 mmHg 94%
    23:00 +12°C° 0 mm 2 mps 737 mmHg 94%

    30 June, Sunday

    Time Temperature Precipitation Wind Pressure Humidity
    00:00 +12°C° 0 mm 2 mps 737 mmHg 95%
    01:00 +10°C° 0 mm 2 mps 737 mmHg 95%
    02:00 +9°C° 0 mm 2 mps 738 mmHg 95%
    03:00 +8°C° 0 mm 2 mps 738 mmHg 94%
    04:00 +9°C° 0 mm 2 mps 738 mmHg 93%
    05:00 +10°C° 0 mm 2 mps 738 mmHg 92%
    06:00 +10°C° 0 mm 2 mps 739 mmHg 91%
    07:00 +13°C° 0 mm 2 mps 739 mmHg 84%
    08:00 +13°C° 0 mm 3 mps 739 mmHg 76%
    09:00 +16°C° 0 mm 3 mps 739 mmHg 69%
    10:00 +16°C° 0 mm 3 mps 740 mmHg 67%
    11:00 +17°C° 0 mm 4 mps 740 mmHg 64%
    12:00 +18°C° 0 mm 4 mps 740 mmHg 61%
    13:00 +18°C° 0 mm 4 mps 740 mmHg 61%
    14:00 +19°C° 0 mm 3 mps 740 mmHg 61%
    15:00 +19°C° 0 mm 3 mps 740 mmHg 61%
    16:00 +18°C° 0.1 mm 2 mps 740 mmHg 64%
    17:00 +18°C° 0.1 mm 2 mps 741 mmHg 68%
    18:00 +18°C° 0.1 mm 2 mps 741 mmHg 72%
    19:00 +16°C° 0 mm 1 mps 741 mmHg 77%
    20:00 +14°C° 0 mm 1 mps 742 mmHg 82%
    21:00 +12°C° 0 mm 1 mps 742 mmHg 87%
    22:00 +12°C° 0 mm 1 mps 742 mmHg 89%
    23:00 +11°C° 0 mm 1 mps 742 mmHg 90%
    Show more